Weather History for Buckhannon, WV

Change the Weather History Date:

Tuesday, March 18, 2014

  Actual Average (KEKN) Record (KEKN)
Temperature  
Mean Temperature 45 °F 40 °F  
Max Temperature 57 °F 52 °F 79 °F (1908)
Min Temperature 33 °F 29 °F 3 °F (1941)
Degree Days  
Heating Degree Days 20 25  
Month to date heating degree days 491  
Since 1 July heating degree days 4812  
Cooling Degree Days 0 0  
Month to date cooling degree days 0  
Year to date cooling degree days 0  
Moisture  
Dew Point 32 °F    
Average Humidity 68    
Maximum Humidity 87    
Minimum Humidity 47    
Precipitation  
Precipitation 0.00 in 0.13 in 0.99 in (1998)
Month to date precipitation 2.25  
Year to date precipitation 8.58  
Snow  
Snow 0.00 in - - ()
Month to date snowfall  
Since 1 September snowfall  
Snow Depth -    
Sea Level Pressure  
Sea Level Pressure 29.96 in    
Wind  
Wind Speed 3 mph (ESE)    
Max Wind Speed 14 mph    
Max Gust Speed 17 mph    
Visibility 10 miles    
Events      
T = Trace of Precipitation, MM = Missing Value Source: NWS Daily Summary

Daily Weather History Graph

Daily Weather History Graph

Search for Another Location

Airport:

Trip Planner

Search our weather history database for the weather conditions in past years. The results will help you decide how hot, cold, wet, or windy it might be!

Date:

Astronomy

Mar. 18, 2014 Rise Set
Actual Time 7:27 AM EDT 7:31 PM EDT
Civil Twilight 7:01 AM EDT 7:57 PM EDT
Nautical Twilight 6:30 AM EDT 8:28 PM EDT
Astronomical Twilight 5:58 AM EDT 9:00 PM EDT
Moon 9:45 PM EDT (3/18) 8:17 AM EDT (3/18)
Length of Visible Light 12h 56m
Length of Day
12h 03m
Waning Gibbous, 96% of the Moon is Illuminated
Mar 18
Waning Gibbous
Mar 23
Last Quarter
Mar 30
New
Apr 7
First Quarter
Apr 15
Full

Hourly Weather History & Observations

Time (EDT) Temp. Windchill Dew Point Humidity Pressure Visibility Wind Dir Wind Speed Gust Speed Precip Events Conditions
12:15 AM 35.6 °F - 28.4 °F 75% 29.89 in 10.0 mi Calm Calm - N/A   Overcast
12:35 AM 35.6 °F 32.8 °F 28.4 °F 75% 29.90 in 10.0 mi East 3.5 mph - N/A   Overcast
12:55 AM 35.6 °F - 28.4 °F 75% 29.90 in 10.0 mi Calm Calm - N/A   Overcast
1:15 AM 35.6 °F - 28.4 °F 75% 29.92 in 10.0 mi Calm Calm - N/A   Overcast
1:35 AM 35.6 °F 32.8 °F 28.4 °F 75% 29.91 in 10.0 mi East 3.5 mph - N/A   Overcast
1:55 AM 35.6 °F 31.7 °F 28.4 °F 75% 29.91 in 10.0 mi East 4.6 mph - N/A   Overcast
2:15 AM 33.8 °F 30.8 °F 28.4 °F 81% 29.91 in 10.0 mi East 3.5 mph - N/A   Overcast
2:35 AM 35.6 °F 32.8 °F 28.4 °F 75% 29.92 in 10.0 mi East 3.5 mph - N/A   Overcast
2:55 AM 35.6 °F - 28.4 °F 75% 29.92 in 10.0 mi Calm Calm - N/A   Overcast
3:15 AM 35.6 °F 31.7 °F 28.4 °F 75% 29.91 in 10.0 mi East 4.6 mph - N/A   Mostly Cloudy
3:35 AM 35.6 °F - 28.4 °F 75% 29.91 in 10.0 mi Calm Calm - N/A   Mostly Cloudy
3:55 AM 35.6 °F - 28.4 °F 75% 29.91 in 10.0 mi Calm Calm - N/A   Mostly Cloudy
4:15 AM 35.6 °F - 28.4 °F 75% 29.91 in 10.0 mi Calm Calm - N/A   Mostly Cloudy
4:35 AM 33.8 °F 30.8 °F 28.4 °F 81% 29.90 in 10.0 mi East 3.5 mph - N/A   Overcast
4:55 AM 35.6 °F - 28.4 °F 75% 29.90 in 10.0 mi Calm Calm - N/A   Overcast
5:15 AM 33.8 °F 30.8 °F 28.4 °F 81% 29.90 in 10.0 mi NE 3.5 mph - N/A   Overcast
5:35 AM 33.8 °F - 28.4 °F 81% 29.91 in 10.0 mi Calm Calm - N/A   Overcast
5:55 AM 33.8 °F - 28.4 °F 81% 29.91 in 10.0 mi Calm Calm - N/A   Mostly Cloudy
6:15 AM 33.8 °F 29.6 °F 28.4 °F 81% 29.92 in 10.0 mi NNE 4.6 mph - N/A   Overcast
6:35 AM 33.8 °F 30.8 °F 28.4 °F 81% 29.92 in 10.0 mi NNE 3.5 mph - N/A   Overcast
6:55 AM 33.8 °F 28.6 °F 28.4 °F 81% 29.92 in 10.0 mi NE 5.8 mph - N/A   Overcast
7:15 AM 33.8 °F 28.6 °F 28.4 °F 81% 29.93 in 10.0 mi NNE 5.8 mph - N/A   Overcast
7:35 AM 33.8 °F 30.8 °F 28.4 °F 81% 29.93 in 10.0 mi NE 3.5 mph - N/A   Overcast
7:55 AM 33.8 °F 27.7 °F 28.4 °F 81% 29.93 in 10.0 mi NE 6.9 mph - N/A   Overcast
8:15 AM 35.6 °F 31.7 °F 28.4 °F 75% 29.94 in 10.0 mi ENE 4.6 mph - N/A   Overcast
8:35 AM 35.6 °F 32.8 °F 28.4 °F 75% 29.94 in 10.0 mi NNE 3.5 mph - N/A   Overcast
8:55 AM 35.6 °F 30.7 °F 28.4 °F 75% 29.94 in 10.0 mi NE 5.8 mph - N/A   Overcast
9:15 AM 35.6 °F 30.7 °F 28.4 °F 75% 29.95 in 10.0 mi NE 5.8 mph - N/A   Mostly Cloudy
9:35 AM 37.4 °F 33.8 °F 30.2 °F 75% 29.96 in 10.0 mi ENE 4.6 mph - N/A   Mostly Cloudy
9:55 AM 37.4 °F 34.9 °F 30.2 °F 75% 29.97 in 10.0 mi ENE 3.5 mph - N/A   Overcast
10:15 AM 39.2 °F 35.9 °F 30.2 °F 70% 29.98 in 10.0 mi East 4.6 mph - N/A   Overcast
10:35 AM 41.0 °F 39.0 °F 32.0 °F 70% 29.98 in 10.0 mi East 3.5 mph - N/A   Overcast
10:55 AM 41.0 °F 36.4 °F 32.0 °F 70% 29.99 in 10.0 mi East 6.9 mph - N/A   Overcast
11:15 AM 42.8 °F 41.1 °F 32.0 °F 66% 29.99 in 10.0 mi East 3.5 mph - N/A   Overcast
11:35 AM 42.8 °F 39.3 °F 32.0 °F 66% 29.99 in 10.0 mi ESE 5.8 mph - N/A   Mostly Cloudy
11:55 AM 44.6 °F - 32.0 °F 61% 29.99 in 10.0 mi Calm Calm - N/A   Mostly Cloudy
12:15 PM 46.4 °F - 32.0 °F 57% 30.01 in 10.0 mi Calm Calm - N/A   Scattered Clouds
12:35 PM 46.4 °F 45.2 °F 32.0 °F 57% 30.01 in 10.0 mi West 3.5 mph - N/A   Partly Cloudy
12:55 PM 48.2 °F - 32.0 °F 54% 30.01 in 10.0 mi Calm Calm - N/A   Clear
1:15 PM 48.2 °F - 32.0 °F 54% 30.02 in 10.0 mi Calm Calm - N/A   Clear
1:35 PM 50.0 °F - 33.8 °F 54% 30.02 in 10.0 mi Calm Calm - N/A   Clear
1:55 PM 50.0 °F - 35.6 °F 58% 30.01 in 10.0 mi Calm Calm - N/A   Clear
2:15 PM 51.8 °F - 35.6 °F 54% 30.01 in 10.0 mi South 3.5 mph - N/A   Partly Cloudy
2:35 PM 51.8 °F - 35.6 °F 54% 30.00 in 10.0 mi West 5.8 mph - N/A   Partly Cloudy
2:55 PM 53.6 °F - 35.6 °F 51% 30.00 in 10.0 mi NW 3.5 mph - N/A   Partly Cloudy
3:15 PM 53.6 °F - 35.6 °F 51% 30.00 in 10.0 mi NNW 5.8 mph - N/A   Clear
3:35 PM 53.6 °F - 35.6 °F 51% 30.00 in 10.0 mi Calm Calm - N/A   Clear
3:55 PM 55.4 °F - 37.4 °F 51% 30.00 in 10.0 mi NNW 3.5 mph - N/A   Clear
4:15 PM 53.6 °F - 35.6 °F 51% 30.00 in 10.0 mi SSW 5.8 mph - N/A   Clear
4:35 PM 53.6 °F - 35.6 °F 51% 30.00 in 10.0 mi Calm Calm - N/A   Clear
4:55 PM 55.4 °F - 35.6 °F 47% 29.99 in 10.0 mi Calm Calm - N/A   Partly Cloudy
5:15 PM 57.2 °F - 37.4 °F 48% 29.98 in 10.0 mi SSW 10.4 mph - N/A   Scattered Clouds
5:35 PM 55.4 °F - 37.4 °F 51% 29.98 in 10.0 mi Calm Calm - N/A   Partly Cloudy
5:55 PM 55.4 °F - 35.6 °F 47% 29.98 in 10.0 mi South 10.4 mph - N/A   Partly Cloudy
6:15 PM 55.4 °F - 37.4 °F 51% 29.98 in 10.0 mi SSE 12.7 mph - N/A   Clear
6:35 PM 53.6 °F - 35.6 °F 51% 29.98 in 10.0 mi South 13.8 mph - N/A   Clear
6:55 PM 53.6 °F - 35.6 °F 51% 29.99 in 10.0 mi South 13.8 mph - N/A   Clear
7:15 PM 51.8 °F - 35.6 °F 54% 29.99 in 10.0 mi South 11.5 mph 17.3 mph N/A   Clear
7:35 PM 50.0 °F - 35.6 °F 58% 29.99 in 10.0 mi SSE 12.7 mph - N/A   Clear
7:55 PM 48.2 °F - 35.6 °F 62% 29.99 in 10.0 mi SSE 10.4 mph - N/A   Clear
8:15 PM 46.4 °F 42.4 °F 35.6 °F 66% 29.99 in 10.0 mi SSE 8.1 mph - N/A   Clear
8:35 PM 46.4 °F 41.5 °F 35.6 °F 66% 29.99 in 10.0 mi SSE 10.4 mph 16.1 mph N/A   Clear
8:55 PM 44.6 °F 39.7 °F 35.6 °F 71% 29.99 in 10.0 mi SSE 9.2 mph - N/A   Clear
9:15 PM 44.6 °F 40.2 °F 35.6 °F 71% 30.00 in 10.0 mi SSE 8.1 mph - N/A   Clear
9:35 PM 44.6 °F 41.4 °F 35.6 °F 71% 29.99 in 10.0 mi SE 5.8 mph - N/A   Clear
9:55 PM 44.6 °F 42.2 °F 35.6 °F 71% 29.98 in 10.0 mi SE 4.6 mph - N/A   Clear
10:15 PM 42.8 °F 41.1 °F 35.6 °F 76% 29.98 in 10.0 mi SE 3.5 mph - N/A   Clear
10:35 PM 44.6 °F - 35.6 °F 71% 29.98 in 10.0 mi Calm Calm - N/A   Clear
10:55 PM 42.8 °F - 35.6 °F 76% 29.98 in 10.0 mi Calm Calm - N/A   Clear
11:15 PM 42.8 °F - 35.6 °F 76% 29.98 in 10.0 mi Calm Calm - N/A   Clear
11:35 PM 42.8 °F 41.1 °F 35.6 °F 76% 29.99 in 10.0 mi South 3.5 mph - N/A   Clear
11:55 PM 39.2 °F 35.9 °F 35.6 °F 87% 29.99 in 10.0 mi South 4.6 mph - N/A   Clear